TimeEDT,TemperatureF,Dew PointF,Humidity,Sea Level PressureIn,VisibilityMPH,Wind Direction,Wind SpeedMPH,Gust SpeedMPH,PrecipitationIn,Events,Conditions,WindDirDegrees,DateUTC
12:54 AM,68.0,68.0,100,29.85,6.0,Calm,Calm,-,N/A,,Scattered Clouds,0,2013-09-03 04:54:00
1:16 AM,68.0,68.0,100,29.88,0.2,Calm,Calm,-,N/A,Fog,Fog,0,2013-09-03 05:16:00
1:54 AM,68.0,68.0,100,29.85,0.2,NNE,3.5,-,N/A,Fog,Fog,30,2013-09-03 05:54:00
2:54 AM,68.0,68.0,100,29.84,0.2,Calm,Calm,-,N/A,Fog,Fog,0,2013-09-03 06:54:00
3:54 AM,68.0,68.0,100,29.85,0.2,Calm,Calm,-,N/A,Fog,Fog,0,2013-09-03 07:54:00
4:54 AM,68.0,68.0,100,29.85,0.2,Calm,Calm,-,N/A,Fog,Fog,0,2013-09-03 08:54:00
5:02 AM,69.8,69.8,100,29.88,1.0,Calm,Calm,-,N/A,,Overcast,0,2013-09-03 09:02:00
5:54 AM,69.1,69.1,100,29.86,1.0,Calm,Calm,-,N/A,,Overcast,0,2013-09-03 09:54:00
6:54 AM,69.1,69.1,100,29.88,1.0,Calm,Calm,-,N/A,,Overcast,0,2013-09-03 10:54:00
7:54 AM,69.1,68.0,96,29.91,1.0,NW,4.6,-,N/A,,Overcast,320,2013-09-03 11:54:00
8:54 AM,69.1,66.9,93,29.93,1.0,North,4.6,-,N/A,,Mostly Cloudy,350,2013-09-03 12:54:00
9:10 AM,69.8,66.2,88,29.95,10.0,Variable,3.5,-,N/A,,Mostly Cloudy,0,2013-09-03 13:10:00
9:54 AM,69.1,64.9,87,29.95,10.0,NNW,5.8,-,N/A,,Mostly Cloudy,330,2013-09-03 13:54:00
10:54 AM,71.1,64.9,81,29.97,10.0,NW,6.9,-,N/A,,Overcast,320,2013-09-03 14:54:00
11:54 AM,72.0,64.9,78,29.97,10.0,WNW,6.9,-,N/A,,Mostly Cloudy,300,2013-09-03 15:54:00
12:54 PM,73.9,64.0,71,29.97,10.0,NNW,8.1,-,N/A,,Mostly Cloudy,340,2013-09-03 16:54:00
1:47 PM,75.2,60.8,61,29.98,10.0,West,8.1,-,N/A,,Mostly Cloudy,280,2013-09-03 17:47:00
1:54 PM,75.0,61.0,62,29.96,10.0,NW,6.9,-,N/A,,Mostly Cloudy,320,2013-09-03 17:54:00
2:54 PM,77.0,59.0,54,29.95,10.0,West,4.6,-,N/A,,Scattered Clouds,280,2013-09-03 18:54:00
3:54 PM,78.1,60.1,54,29.94,10.0,WNW,10.4,18.4,N/A,,Scattered Clouds,300,2013-09-03 19:54:00
4:54 PM,78.1,59.0,52,29.94,10.0,NW,6.9,-,N/A,,Scattered Clouds,310,2013-09-03 20:54:00
5:54 PM,75.9,60.1,58,29.95,10.0,NW,10.4,19.6,N/A,,Scattered Clouds,320,2013-09-03 21:54:00
6:54 PM,73.0,59.0,61,29.96,10.0,NW,5.8,-,N/A,,Partly Cloudy,310,2013-09-03 22:54:00
7:54 PM,69.1,57.9,68,29.98,10.0,NNW,4.6,-,N/A,,Partly Cloudy,330,2013-09-03 23:54:00
8:54 PM,66.0,61.0,84,30.01,10.0,Calm,Calm,-,N/A,,Clear,0,2013-09-04 00:54:00
9:54 PM,63.0,62.1,97,30.03,10.0,Calm,Calm,-,N/A,,Clear,0,2013-09-04 01:54:00
10:54 PM,61.0,61.0,100,30.04,10.0,Calm,Calm,-,N/A,,Clear,0,2013-09-04 02:54:00
11:54 PM,60.1,60.1,100,30.06,7.0,Calm,Calm,-,N/A,,Clear,0,2013-09-04 03:54:00